Regional Weather Roundup
Issued by NWS Northern Indiana

Home | Current Version | Previous Version | Graphics & Text | Print | Product List | Glossary On
Versions: 1 2 3 4 5 6 7 8 9 10 11 12 13 14 15 16 17 18 19 20 21 22 23 24 25 26 27 28 29 30 31 32 33 34 35 36 37 38 39 40 41 42 43 44 45 46 47 48 49 50
000
ASUS43 KIWX 140800
RWRIWX

KIWX WEATHER ROUNDUP
NATIONAL WEATHER SERVICE NORTHERN INDIANA
300 AM EST SUN FEB 14 2016

NOTE: "FAIR" INDICATES FEW OR NO CLOUDS BELOW 12,000 FEET WITH NO
SIGNIFICANT WEATHER AND/OR OBSTRUCTIONS TO VISIBILITY.

* THESE STATIONS ARE NOT UNDER NWS QUALITY CONTROL. THEY ALSO MAY NOT
  REPORT WEATHER SUCH AS PRECIPITATION OR FOG.

INZ001>027-140900-
NORTHERN INDIANA

CITY           SKY/WX    TMP DP  RH WIND       PRES   REMARKS
SOUTH BEND     CLOUDY     7   1  76 CALM      30.46S
GOSHEN         CLOUDY     9   3  77 CALM      30.46S
ANGOLA*        CLOUDY     9   5  85 CALM      30.44S
FORT WAYNE     CLOUDY     6   1  80 CALM      30.48S
PERU/GRISSOM   CLOUDY     9   1  70 E8        30.43F WCI  -3

$$
INZ028>050-140900-
CENTRAL INDIANA

CITY           SKY/WX    TMP DP  RH WIND       PRES   REMARKS
LAFAYETTE      CLOUDY    13   2  61 SE6       30.46F WCI   4
KOKOMO*        CLOUDY     9   1  72 E7        30.44F WCI  -3
MUNCIE*        CLOUDY     6  -2  69 E3        30.45F
INDIANAPOLIS   CLOUDY    14  -1  51 E7        30.44R WCI   4

$$
MIZ043>046-050>051-056>058-064>065-071>073-077>080-140900-
SOUTHWEST LOWER MICHIGAN

CITY           SKY/WX    TMP DP  RH WIND       PRES   REMARKS
BATTLE CREEK   CLOUDY     2  -4  76 CALM      30.45S
BENTON HARBOR  CLOUDY    13   4  67 SE7       30.46F WCI   3
COLDWATER*     CLOUDY    10   0  64 CALM      30.45S
HILLSDALE*     CLOUDY     6   0  74 CALM      30.42S
HOLLAND        CLOUDY    11   3  70 SE6       30.47S WCI   1
GRAND RAPIDS   CLEAR      4   0  83 CALM      30.46S
KALAMAZOO      CLOUDY    10   1  67 CALM      30.46R
STURGIS*       CLOUDY     9   6  88 CALM      30.44S
THREE RIVERS*  CLOUDY    12   8  85 CALM      30.47S

$$
OHZ001>008-015>018-024>025-140900-
NORTHWEST OHIO

CITY           SKY/WX    TMP DP  RH WIND       PRES   REMARKS
DEFIANCE       CLOUDY    14   5  67 CALM      30.48F
FINDLAY        CLOUDY     7   1  76 CALM      30.46S
TOLEDO EXPRESS CLOUDY     9   2  73 N3        30.48S
TOLEDO METCALF PTCLDY    11   0  61 CALM      30.49S
LIMA           CLOUDY     5   0  79 SW5       30.45S WCI  -4

$$
AND FOR LAKE MICHIGAN COASTAL AND OPEN LAKE BUOY OBSERVATIONS

STATION/POSITION TEMP    WIND        PRES    VSBY  WAVE
                 AIR SEA DIR/SP/G                  HT/PER
                 (F)     (DEG/KT/KT) (MB)    (MI)  (FT/S)
CALUMET HARBOR    12     140/  5/  8 1030.6F
MICHIGAN CITY      9     130/  8/  9   N/A
BURNS HARBOR      11     180/  7/ 10 1032.2S
SAINT JOSEPH      13      90/  2/  7 1031.8F

$$
&&



USA.gov is the U.S. government's official web portal to all federal, state and local government web resources and services.